Location: Champseau
(45.8333°N, 1.7667°E)
Time: 14:34:12
(UTC+00:00)

X-37B - Pass Details

Date: 30 September 2021
Orbit: 385 x 389 km, 45.0° (Epoch: 17 October)

Event Time Altitude Azimuth Distance (km) Brightness Sun altitude
Exits shadow 05:11:40 10° 271° (W) 1,407 2.7 -7.5°
Maximum altitude 05:14:40 42° 200° (SSW) 569 1.2 -7.0°
Drops below altitude 10° 05:17:42 10° 127° (SE) 1,411 4.3 -6.5°
Sets 05:19:49 0° 120° (ESE) 2,264 5.6 -6.1°
